| time (UTC) | temp C | wind direction | speed KPH | gust KPH | rain 1hr cm | rain 24hr cm | rain mn cm | humidity % | barometer mb |
| 20260505071605 | 13 | 59 | 4.8 | 4.8 | 0.00 | 0.03 | 0.03 | 57 | 1008.1 |
| 20260505071104 | 13 | 152 | 4.8 | 4.8 | 0.00 | 0.03 | 0.03 | 53 | 1007.9 |
| 20260505070601 | 13 | 47 | 3.2 | 3.2 | 0.18 | 0.03 | 0.03 | 55 | 1007.9 |
| 20260505070056 | 13 | 13 | 8.0 | 14.5 | 0.18 | 0.03 | 0.03 | 57 | 1007.4 |
| 20260505065553 | 13 | 52 | 1.6 | 3.2 | 0.00 | 0.00 | 0.00 | 56 | 1007.8 |
| 20260505065049 | 13 | 62 | 3.2 | 3.2 | 0.00 | 0.00 | 0.00 | 53 | 1008.0 |
| 20260505064546 | 14 | 343 | 4.8 | 8.0 | 0.00 | 0.00 | 0.00 | 49 | 1008.2 |
| 20260505064045 | 15 | 32 | 8.0 | 9.7 | 0.00 | 0.00 | 0.00 | 47 | 1007.9 |
| 20260505063542 | 15 | 31 | 8.0 | 9.7 | 0.00 | 0.00 | 0.00 | 46 | 1008.1 |
| 20260505063037 | 15 | 70 | 3.2 | 3.2 | 0.00 | 0.00 | 0.00 | 49 | 1008.1 |
| 20260505062534 | 15 | 52 | 6.4 | 8.0 | 0.00 | 0.00 | 0.00 | 46 | 1007.7 |
| 20260505062032 | 16 | 316 | 11.3 | 12.9 | 0.00 | 0.00 | 0.00 | 44 | 1007.4 |
| 20260505061529 | 16 | 10 | 6.4 | 8.0 | 0.00 | 0.00 | 0.00 | 42 | 1006.5 |
| 20260505061027 | 16 | 73 | 3.2 | 4.8 | 0.00 | 0.00 | 0.00 | 42 | 1006.1 |
| 20260505060524 | 16 | 344 | 14.5 | 16.1 | 0.00 | 0.00 | 0.00 | 41 | 1005.6 |
| 20260505060021 | 17 | 325 | 9.7 | 16.1 | 0.00 | 0.00 | 0.00 | 41 | 1005.9 |
| 20260505055516 | 17 | 352 | 14.5 | 25.7 | 0.00 | 0.00 | 0.00 | 41 | 1005.7 |
| 20260505055013 | 17 | 40 | 14.5 | 17.7 | 0.00 | 0.00 | 0.00 | 40 | 1005.4 |
| 20260505054510 | 17 | 347 | 14.5 | 16.1 | 0.00 | 0.00 | 0.00 | 40 | 1005.5 |
| 20260505054008 | 17 | 347 | 11.3 | 12.9 | 0.00 | 0.00 | 0.00 | 40 | 1005.3 |
| 20260505053505 | 17 | 56 | 12.9 | 20.9 | 0.00 | 0.00 | 0.00 | 40 | 1005.1 |
| 20260505053001 | 18 | 56 | 8.0 | 11.3 | 0.00 | 0.00 | 0.00 | 40 | 1005.1 |
| 20260505052459 | 18 | 8 | 17.7 | 20.9 | 0.00 | 0.00 | 0.00 | 39 | 1004.7 |
| 20260505051956 | 18 | 53 | 4.8 | 8.0 | 0.00 | 0.00 | 0.00 | 41 | 1005.0 |
| 20260505051453 | 19 | 357 | 8.0 | 9.7 | 0.00 | 0.00 | 0.00 | 41 | 1004.8 |
| 20260505050951 | 19 | 29 | 8.0 | 12.9 | 0.00 | 0.00 | 0.00 | 41 | 1004.7 |
| 20260505050449 | 19 | 2 | 11.3 | 14.5 | 0.00 | 0.00 | 0.00 | 40 | 1004.5 |
| 20260505041417 | 21 | 16 | 4.8 | 9.7 | 0.00 | 0.00 | 0.00 | 41 | 1003.4 |
| 20260505040914 | 21 | 56 | 6.4 | 9.7 | 0.00 | 0.00 | 0.00 | 41 | 1003.6 |
| 20260505040411 | 21 | 81 | 6.4 | 8.0 | 0.00 | 0.00 | 0.00 | 40 | 1003.7 |
| 20260505035908 | 21 | 48 | 1.6 | 3.2 | 0.00 | 0.00 | 0.00 | 41 | 1003.8 |
| 20260505035404 | 21 | 50 | 6.4 | 9.7 | 0.00 | 0.00 | 0.00 | 41 | 1003.6 |
| 20260505034901 | 21 | 346 | 8.0 | 9.7 | 0.00 | 0.00 | 0.00 | 41 | 1003.8 |
| 20260505034357 | 21 | 353 | 6.4 | 9.7 | 0.00 | 0.00 | 0.00 | 42 | 1003.7 |
| 20260505033855 | 21 | 348 | 14.5 | 17.7 | 0.00 | 0.00 | 0.00 | 43 | 1003.5 |
| 20260505033351 | 21 | 18 | 6.4 | 9.7 | 0.00 | 0.00 | 0.00 | 44 | 1003.4 |
| 20260505032850 | 21 | 69 | 4.8 | 4.8 | 0.00 | 0.00 | 0.00 | 48 | 1003.5 |
| 20260505032346 | 21 | 0 | 6.4 | 8.0 | 0.00 | 0.00 | 0.00 | 54 | 1003.2 |
| 20260505031843 | 21 | 93 | 1.6 | 1.6 | 0.00 | 0.00 | 0.00 | 59 | 1003.4 |
| 20260505031339 | 21 | 32 | 6.4 | 9.7 | 0.00 | 0.00 | 0.00 | 59 | 1003.1 |
| 20260505030837 | 21 | 53 | 1.6 | 1.6 | 0.00 | 0.00 | 0.00 | 63 | 1003.0 |
| 20260505030332 | 21 | 67 | 6.4 | 8.0 | 0.00 | 0.00 | 0.00 | 67 | 1002.8 |
| 20260505025828 | 21 | 78 | 0.0 | 0.0 | 0.00 | 0.00 | 0.00 | 65 | 1002.5 |
| 20260505025326 | 21 | 113 | 1.6 | 1.6 | 0.00 | 0.00 | 0.00 | 63 | 1002.2 |
| 20260505024824 | 22 | 128 | 1.6 | 3.2 | 0.00 | 0.00 | 0.00 | 62 | 1001.8 |
| 20260505024322 | 22 | 127 | 4.8 | 4.8 | 0.00 | 0.00 | 0.00 | 61 | 1001.8 |
| 20260505023819 | 22 | 132 | 4.8 | 4.8 | 0.00 | 0.00 | 0.00 | 61 | 1001.8 |
| 20260505023315 | 22 | 130 | 6.4 | 8.0 | 0.00 | 0.00 | 0.00 | 61 | 1001.7 |
| 20260505022813 | 22 | 126 | 4.8 | 4.8 | 0.00 | 0.00 | 0.00 | 61 | 1002.0 |
| 20260505022310 | 22 | 107 | 4.8 | 4.8 | 0.00 | 0.00 | 0.00 | 61 | 1001.8 |
| 20260505021807 | 22 | 99 | 1.6 | 3.2 | 0.00 | 0.00 | 0.00 | 62 | 1001.7 |
| 20260505021304 | 21 | 129 | 4.8 | 4.8 | 0.00 | 0.00 | 0.00 | 62 | 1001.7 |
| 20260505020759 | 21 | 108 | 3.2 | 3.2 | 0.00 | 0.00 | 0.00 | 64 | 1001.6 |
| 20260505020255 | 20 | 97 | 1.6 | 1.6 | 0.00 | 0.00 | 0.00 | 68 | 1001.5 |
| 20260505015752 | 20 | 91 | 1.6 | 1.6 | 0.00 | 0.00 | 0.00 | 70 | 1001.6 |
| 20260505015249 | 21 | 85 | 0.0 | 0.0 | 0.00 | 0.00 | 0.00 | 68 | 1001.6 |
| 20260505014746 | 21 | 79 | 0.0 | 0.0 | 0.00 | 0.00 | 0.00 | 66 | 1001.2 |
| 20260505014244 | 21 | 98 | 1.6 | 1.6 | 0.00 | 0.00 | 0.00 | 66 | 1001.2 |
| 20260505013740 | 21 | 94 | 1.6 | 1.6 | 0.00 | 0.00 | 0.00 | 65 | 1001.0 |
| 20260505013237 | 21 | 89 | 1.6 | 1.6 | 0.00 | 0.00 | 0.00 | 66 | 1001.2 |
| 20260505012735 | 21 | 98 | 1.6 | 1.6 | 0.00 | 0.00 | 0.00 | 65 | 1001.1 |
| 20260505012232 | 21 | 79 | 0.0 | 1.6 | 0.00 | 0.00 | 0.00 | 66 | 1001.0 |
| 20260505011728 | 21 | 76 | 1.6 | 1.6 | 0.00 | 0.00 | 0.00 | 64 | 1001.2 |
| 20260505011226 | 22 | 77 | 0.0 | 0.0 | 0.00 | 0.00 | 0.00 | 64 | 1000.8 |
| 20260505010721 | 22 | 84 | 0.0 | 0.0 | 0.00 | 0.00 | 0.00 | 63 | 1001.0 |
| 20260505010218 | 22 | 83 | 0.0 | 0.0 | 0.00 | 0.00 | 0.00 | 61 | 1000.6 |
| 20260505005714 | 23 | 84 | 0.0 | 0.0 | 0.00 | 0.00 | 0.00 | 61 | 1000.8 |
| 20260505005211 | 23 | 84 | 0.0 | 0.0 | 0.00 | 0.00 | 0.00 | 59 | 1000.7 |
| 20260505004708 | 24 | 83 | 1.6 | 1.6 | 0.00 | 0.00 | 0.00 | 55 | 1000.7 |
| 20260505004204 | 25 | 98 | 3.2 | 3.2 | 0.00 | 0.00 | 0.00 | 54 | 1000.8 |
| 20260505003702 | 25 | 102 | 3.2 | 3.2 | 0.00 | 0.00 | 0.00 | 53 | 1000.7 |
| 20260505003200 | 25 | 107 | 3.2 | 3.2 | 0.00 | 0.00 | 0.00 | 52 | 1000.8 |
| 20260505002655 | 25 | 88 | 0.0 | 0.0 | 0.00 | 0.00 | 0.00 | 52 | 1000.7 |
| 20260505002154 | 26 | 90 | 0.0 | 0.0 | 0.00 | 0.00 | 0.00 | 50 | 1000.6 |
| 20260505001650 | 26 | 101 | 1.6 | 1.6 | 0.00 | 0.00 | 0.00 | 49 | 1000.6 |
| 20260505001148 | 26 | 97 | 1.6 | 1.6 | 0.00 | 0.00 | 0.00 | 49 | 1000.7 |
| 20260505000645 | 26 | 126 | 3.2 | 3.2 | 0.00 | 0.00 | 0.00 | 47 | 1000.7 |
| 20260505000143 | 26 | 93 | 0.0 | 1.6 | 0.00 | 0.00 | 0.00 | 50 | 1000.7 |
| 20260504235638 | 26 | 93 | 1.6 | 1.6 | 0.00 | 0.00 | 0.00 | 49 | 1000.7 |
| 20260504235129 | 26 | 91 | 1.6 | 1.6 | 0.00 | 0.00 | 0.00 | 52 | 1000.7 |
| 20260504234627 | 26 | 172 | 3.2 | 3.2 | 0.00 | 0.00 | 0.00 | 48 | 1000.7 |
| 20260504234124 | 26 | 103 | 1.6 | 1.6 | 0.00 | 0.00 | 0.00 | 48 | 1000.9 |
| 20260504233620 | 26 | 192 | 3.2 | 3.2 | 0.00 | 0.00 | 0.00 | 49 | 1000.9 |
| 20260504233116 | 26 | 142 | 8.0 | 11.3 | 0.00 | 0.00 | 0.00 | 47 | 1000.8 |
| 20260504232614 | 26 | 95 | 1.6 | 1.6 | 0.00 | 0.00 | 0.00 | 48 | 1000.8 |
| 20260504232110 | 26 | 173 | 8.0 | 11.3 | 0.00 | 0.00 | 0.00 | 46 | 1000.8 |
| 20260504231607 | 26 | 170 | 3.2 | 3.2 | 0.00 | 0.00 | 0.00 | 46 | 1000.8 |
| 20260504231103 | 26 | 122 | 3.2 | 3.2 | 0.00 | 0.00 | 0.00 | 45 | 1000.7 |
| 20260504230558 | 26 | 157 | 4.8 | 8.0 | 0.00 | 0.00 | 0.00 | 43 | 1000.7 |
| 20260504230053 | 26 | 162 | 4.8 | 8.0 | 0.00 | 0.00 | 0.00 | 45 | 1000.7 |
| 20260504225550 | 27 | 132 | 4.8 | 8.0 | 0.00 | 0.00 | 0.00 | 44 | 1000.5 |
| 20260504225047 | 27 | 155 | 3.2 | 3.2 | 0.00 | 0.00 | 0.00 | 41 | 1000.7 |
| 20260504224543 | 27 | 203 | 6.4 | 9.7 | 0.00 | 0.00 | 0.00 | 39 | 1000.6 |
| 20260504224040 | 27 | 177 | 4.8 | 8.0 | 0.00 | 0.00 | 0.00 | 40 | 1000.7 |
| 20260504223537 | 28 | 242 | 4.8 | 8.0 | 0.00 | 0.00 | 0.00 | 39 | 1000.4 |
| 20260504223033 | 28 | 183 | 4.8 | 4.8 | 0.00 | 0.00 | 0.00 | 38 | 1000.6 |
| 20260504222530 | 28 | 116 | 3.2 | 3.2 | 0.00 | 0.00 | 0.00 | 37 | 1000.5 |
| 20260504222027 | 28 | 134 | 4.8 | 4.8 | 0.00 | 0.00 | 0.00 | 39 | 1000.6 |
| 20260504221525 | 28 | 234 | 3.2 | 4.8 | 0.00 | 0.00 | 0.00 | 38 | 1000.6 |
| 20260504221021 | 28 | 159 | 6.4 | 8.0 | 0.00 | 0.00 | 0.00 | 38 | 1000.8 |
| 20260504220518 | 27 | 131 | 1.6 | 3.2 | 0.00 | 0.00 | 0.00 | 40 | 1000.7 |
| 20260504220015 | 27 | 157 | 8.0 | 9.7 | 0.00 | 0.00 | 0.00 | 38 | 1000.9 |
| 20260504215511 | 27 | 179 | 11.3 | 14.5 | 0.00 | 0.00 | 0.00 | 38 | 1001.0 |
| 20260504215009 | 27 | 154 | 3.2 | 3.2 | 0.00 | 0.00 | 0.00 | 42 | 1001.0 |
| 20260504214505 | 27 | 108 | 1.6 | 1.6 | 0.00 | 0.00 | 0.00 | 42 | 1000.9 |
| 20260504214001 | 27 | 148 | 6.4 | 8.0 | 0.00 | 0.00 | 0.00 | 43 | 1001.1 |
| 20260504213457 | 27 | 172 | 4.8 | 8.0 | 0.00 | 0.00 | 0.00 | 44 | 1001.1 |
| 20260504212955 | 27 | 198 | 4.8 | 4.8 | 0.00 | 0.00 | 0.00 | 42 | 1000.9 |
| 20260504212450 | 27 | 250 | 8.0 | 9.7 | 0.00 | 0.00 | 0.00 | 40 | 1001.1 |
| 20260504211948 | 27 | 127 | 4.8 | 8.0 | 0.00 | 0.00 | 0.00 | 42 | 1001.4 |
| 20260504211444 | 27 | 101 | 4.8 | 4.8 | 0.00 | 0.00 | 0.00 | 43 | 1001.2 |
| 20260504210942 | 27 | 146 | 4.8 | 8.0 | 0.00 | 0.00 | 0.00 | 44 | 1001.3 |
| 20260504210439 | 27 | 194 | 8.0 | 9.7 | 0.00 | 0.00 | 0.00 | 41 | 1001.6 |
| 20260504205936 | 27 | 206 | 6.4 | 8.0 | 0.00 | 0.00 | 0.00 | 44 | 1001.1 |
| 20260504205433 | 27 | 120 | 3.2 | 3.2 | 0.00 | 0.00 | 0.00 | 41 | 1001.3 |
| 20260504204931 | 27 | 265 | 8.0 | 12.9 | 0.00 | 0.00 | 0.00 | 39 | 1001.4 |
| 20260504204429 | 27 | 257 | 3.2 | 3.2 | 0.00 | 0.00 | 0.00 | 42 | 1001.5 |
| 20260504203928 | 27 | 184 | 4.8 | 4.8 | 0.00 | 0.00 | 0.00 | 44 | 1001.2 |
| 20260504203426 | 27 | 202 | 6.4 | 8.0 | 0.00 | 0.00 | 0.00 | 38 | 1001.2 |
| 20260504202921 | 28 | 203 | 4.8 | 4.8 | 0.00 | 0.00 | 0.00 | 39 | 1001.6 |
| 20260504202418 | 27 | 112 | 3.2 | 3.2 | 0.00 | 0.00 | 0.00 | 36 | 1001.6 |
| 20260504201915 | 27 | 173 | 4.8 | 8.0 | 0.00 | 0.00 | 0.00 | 38 | 1001.5 |
| 20260504201412 | 28 | 225 | 4.8 | 4.8 | 0.00 | 0.00 | 0.00 | 41 | 1001.8 |
| 20260504200910 | 28 | 263 | 6.4 | 9.7 | 0.00 | 0.00 | 0.00 | 40 | 1001.8 |
| 20260504200406 | 28 | 192 | 6.4 | 9.7 | 0.00 | 0.00 | 0.00 | 38 | 1001.6 |
| 20260504195903 | 28 | 197 | 6.4 | 9.7 | 0.00 | 0.00 | 0.00 | 39 | 1001.7 |
| 20260504195358 | 28 | 247 | 6.4 | 8.0 | 0.00 | 0.00 | 0.00 | 39 | 1001.7 |
| 20260504194855 | 27 | 237 | 8.0 | 9.7 | 0.00 | 0.00 | 0.00 | 38 | 1001.7 |
| 20260504194351 | 28 | 223 | 6.4 | 8.0 | 0.00 | 0.00 | 0.00 | 40 | 1001.7 |
| 20260504193847 | 27 | 226 | 8.0 | 12.9 | 0.00 | 0.00 | 0.00 | 39 | 1002.0 |
| 20260504193344 | 28 | 105 | 8.0 | 11.3 | 0.00 | 0.00 | 0.00 | 41 | 1001.5 |
| 20260504192844 | 27 | 194 | 6.4 | 9.7 | 0.00 | 0.00 | 0.00 | 40 | 1001.6 |
| 20260504192341 | 27 | 115 | 3.2 | 3.2 | 0.00 | 0.00 | 0.00 | 39 | 1001.6 |
| 20260504191839 | 27 | 196 | 8.0 | 9.7 | 0.00 | 0.00 | 0.00 | 40 | 1002.0 |
| 20260504191337 | 27 | 162 | 3.2 | 4.8 | 0.00 | 0.00 | 0.00 | 42 | 1001.7 |
| 20260504190832 | 27 | 261 | 14.5 | 16.1 | 0.00 | 0.00 | 0.00 | 39 | 1001.8 |
| 20260504190328 | 27 | 256 | 6.4 | 8.0 | 0.00 | 0.00 | 0.00 | 39 | 1001.9 |
| 20260504185825 | 27 | 188 | 11.3 | 16.1 | 0.00 | 0.00 | 0.00 | 44 | 1002.0 |
| 20260504185322 | 27 | 215 | 8.0 | 9.7 | 0.00 | 0.00 | 0.00 | 47 | 1001.9 |
| 20260504184818 | 26 | 156 | 6.4 | 8.0 | 0.00 | 0.00 | 0.00 | 44 | 1002.1 |
| 20260504184314 | 26 | 142 | 4.8 | 4.8 | 0.00 | 0.00 | 0.00 | 45 | 1001.9 |
| 20260504183809 | 26 | 188 | 9.7 | 11.3 | 0.00 | 0.00 | 0.00 | 47 | 1001.7 |
| 20260504183307 | 26 | 82 | 4.8 | 4.8 | 0.00 | 0.00 | 0.00 | 43 | 1002.0 |
| 20260504182805 | 27 | 190 | 6.4 | 8.0 | 0.00 | 0.00 | 0.00 | 45 | 1002.0 |
| 20260504182304 | 26 | 157 | 4.8 | 4.8 | 0.00 | 0.00 | 0.00 | 46 | 1001.9 |
| 20260504181759 | 26 | 233 | 6.4 | 9.7 | 0.00 | 0.00 | 0.00 | 45 | 1001.9 |
| 20260504181256 | 26 | 167 | 6.4 | 8.0 | 0.00 | 0.00 | 0.00 | 50 | 1001.7 |
| 20260504180755 | 26 | 248 | 6.4 | 11.3 | 0.00 | 0.00 | 0.00 | 47 | 1002.1 |
| 20260504180254 | 26 | 230 | 4.8 | 8.0 | 0.00 | 0.00 | 0.00 | 46 | 1002.4 |
| 20260504175751 | 25 | 280 | 11.3 | 12.9 | 0.00 | 0.00 | 0.00 | 46 | 1002.0 |
| 20260504175248 | 26 | 174 | 11.3 | 14.5 | 0.00 | 0.00 | 0.00 | 47 | 1002.2 |
| 20260504174745 | 25 | 181 | 8.0 | 11.3 | 0.00 | 0.00 | 0.00 | 48 | 1002.2 |
| 20260504174243 | 25 | 147 | 9.7 | 12.9 | 0.00 | 0.00 | 0.00 | 46 | 1002.4 |
| 20260504173739 | 25 | 208 | 8.0 | 9.7 | 0.00 | 0.00 | 0.00 | 47 | 1002.2 |
| 20260504173237 | 25 | 145 | 6.4 | 8.0 | 0.00 | 0.00 | 0.00 | 45 | 1002.4 |
| 20260504172733 | 25 | 233 | 11.3 | 14.5 | 0.00 | 0.00 | 0.00 | 46 | 1002.5 |
| 20260504172230 | 25 | 234 | 8.0 | 9.7 | 0.00 | 0.00 | 0.00 | 45 | 1002.4 |
| 20260504171726 | 25 | 99 | 4.8 | 8.0 | 0.00 | 0.00 | 0.00 | 46 | 1002.2 |
| 20260504171223 | 25 | 236 | 6.4 | 9.7 | 0.00 | 0.00 | 0.00 | 48 | 1002.6 |
| 20260504170720 | 25 | 283 | 4.8 | 4.8 | 0.00 | 0.00 | 0.00 | 49 | 1002.7 |
| 20260504170218 | 25 | 177 | 4.8 | 4.8 | 0.00 | 0.00 | 0.00 | 48 | 1002.6 |
| 20260504160136 | 23 | 232 | 9.7 | 12.9 | 0.00 | 0.00 | 0.00 | 50 | 1002.8 |
| 20260504151103 | 22 | 166 | 6.4 | 8.0 | 0.00 | 0.00 | 0.00 | 55 | 1002.8 |
| 20260504150601 | 21 | 210 | 9.7 | 14.5 | 0.00 | 0.00 | 0.00 | 54 | 1003.0 |
| 20260504141026 | 20 | 221 | 8.0 | 9.7 | 0.00 | 0.00 | 0.00 | 59 | 1002.9 |
| 20260504140523 | 20 | 186 | 8.0 | 11.3 | 0.00 | 0.00 | 0.00 | 59 | 1003.3 |
| 20260504130447 | 17 | 111 | 4.8 | 4.8 | 0.00 | 0.00 | 0.00 | 65 | 1002.9 |
| 20260504110334 | 15 | 118 | 3.2 | 3.2 | 0.00 | 0.00 | 0.00 | 67 | 1002.8 |
| 20260504100252 | 13 | 93 | 0.0 | 0.0 | 0.00 | 0.00 | 0.00 | 77 | 1003.7 |
| 20260504081645 | 17 | 85 | 0.0 | 0.0 | 0.00 | 0.00 | 0.00 | 59 | 1004.3 |
| 20260504081141 | 17 | 103 | 1.6 | 3.2 | 0.00 | 0.00 | 0.00 | 58 | 1004.2 |
| 20260504080638 | 17 | 88 | 0.0 | 0.0 | 0.00 | 0.00 | 0.00 | 58 | 1004.2 |
| 20260504080134 | 17 | 118 | 1.6 | 1.6 | 0.00 | 0.00 | 0.00 | 57 | 1004.4 |